When you browse on this site, cookies collect data to enhance your experience and personalize the content and advertising you see.
Visit our Privacy Policy to learn more. By continuing to use the site, you agree to this use of cookies and data.
  • In France
  • List of Countries
  • For 7 days
  • Water Temperature
  • Weather Map
  • Weather Widgets
  • user-avatar
    Login

    Hourly Weather Sydney

    Today, 14 December, Saturday

    Time Temperature Precipitation Wind Pressure Humidity
    00:00 +20°C° 0 mm 2 mps 759 mmHg 76%
    01:00 +19°C° 0 mm 2 mps 759 mmHg 79%
    02:00 +19°C° 0.1 mm 2 mps 758 mmHg 82%
    03:00 +18°C° 0.1 mm 2 mps 758 mmHg 85%
    04:00 +18°C° 0 mm 1 mps 757 mmHg 88%
    05:00 +20°C° 0 mm 1 mps 758 mmHg 81%
    06:00 +21°C° 0 mm 1 mps 758 mmHg 74%
    07:00 +23°C° 0 mm 1 mps 758 mmHg 68%
    08:00 +25°C° 0 mm 2 mps 758 mmHg 59%
    09:00 +28°C° 0 mm 2 mps 757 mmHg 50%
    10:00 +30°C° 0 mm 2 mps 757 mmHg 41%
    11:00 +31°C° 0 mm 3 mps 756 mmHg 38%
    12:00 +33°C° 0 mm 4 mps 756 mmHg 35%
    13:00 +34°C° 0 mm 5 mps 755 mmHg 31%
    14:00 +32°C° 0 mm 6 mps 755 mmHg 40%
    15:00 +30°C° 0 mm 6 mps 755 mmHg 50%
    16:00 +28°C° 0 mm 6 mps 754 mmHg 59%
    17:00 +27°C° 0 mm 5 mps 755 mmHg 66%
    18:00 +25°C° 0 mm 4 mps 756 mmHg 73%
    19:00 +24°C° 0 mm 3 mps 757 mmHg 80%
    20:00 +22°C° 0.5 mm 3 mps 757 mmHg 82%
    21:00 +22°C° 0.5 mm 4 mps 758 mmHg 84%
    22:00 +21°C° 0.5 mm 5 mps 758 mmHg 86%
    23:00 +21°C° 0.3 mm 5 mps 758 mmHg 87%

    Tomorrow, 15 December, Sunday

    Time Temperature Precipitation Wind Pressure Humidity
    00:00 +20°C° 0.3 mm 4 mps 758 mmHg 88%
    01:00 +20°C° 0.3 mm 4 mps 757 mmHg 88%
    02:00 +20°C° 0.1 mm 4 mps 757 mmHg 88%
    03:00 +20°C° 0.1 mm 3 mps 757 mmHg 88%
    04:00 +20°C° 0.1 mm 3 mps 757 mmHg 89%
    05:00 +20°C° 0.1 mm 2 mps 757 mmHg 87%
    06:00 +21°C° 0.1 mm 2 mps 757 mmHg 85%
    07:00 +22°C° 0.1 mm 1 mps 757 mmHg 84%
    08:00 +24°C° 0 mm 1 mps 757 mmHg 72%
    09:00 +26°C° 0 mm 1 mps 757 mmHg 61%
    10:00 +28°C° 0 mm 1 mps 757 mmHg 49%
    11:00 +30°C° 0 mm 2 mps 756 mmHg 43%
    12:00 +33°C° 0 mm 3 mps 755 mmHg 36%
    13:00 +35°C° 0 mm 4 mps 754 mmHg 30%
    14:00 +34°C° 0 mm 5 mps 754 mmHg 36%
    15:00 +33°C° 0 mm 6 mps 753 mmHg 42%
    16:00 +30°C° 0 mm 6 mps 753 mmHg 49%
    17:00 +29°C° 0 mm 6 mps 753 mmHg 56%
    18:00 +27°C° 0 mm 5 mps 753 mmHg 63%
    19:00 +26°C° 0 mm 5 mps 754 mmHg 70%
    20:00 +25°C° 0 mm 4 mps 754 mmHg 74%
    21:00 +24°C° 0 mm 3 mps 754 mmHg 77%
    22:00 +22°C° 0 mm 3 mps 754 mmHg 81%
    23:00 +22°C° 0 mm 3 mps 754 mmHg 77%

    Day after tomorrow, 16 December, Monday

    Time Temperature Precipitation Wind Pressure Humidity
    00:00 +22°C° 0 mm 3 mps 754 mmHg 73%
    01:00 +22°C° 0 mm 3 mps 753 mmHg 69%
    02:00 +21°C° 0 mm 4 mps 754 mmHg 58%
    03:00 +21°C° 0 mm 5 mps 754 mmHg 48%
    04:00 +21°C° 0 mm 6 mps 754 mmHg 37%
    05:00 +22°C° 0 mm 7 mps 755 mmHg 46%
    06:00 +22°C° 0 mm 8 mps 756 mmHg 56%
    07:00 +23°C° 0 mm 9 mps 757 mmHg 65%
    08:00 +23°C° 0 mm 8 mps 757 mmHg 63%
    09:00 +23°C° 0 mm 8 mps 758 mmHg 62%
    10:00 +23°C° 0 mm 7 mps 758 mmHg 60%
    11:00 +24°C° 0 mm 7 mps 758 mmHg 56%
    12:00 +24°C° 0 mm 7 mps 758 mmHg 53%
    13:00 +26°C° 0 mm 7 mps 759 mmHg 49%
    14:00 +26°C° 0 mm 7 mps 759 mmHg 50%
    15:00 +24°C° 0 mm 6 mps 759 mmHg 52%
    16:00 +24°C° 0 mm 6 mps 759 mmHg 53%
    17:00 +23°C° 0 mm 5 mps 760 mmHg 58%
    18:00 +21°C° 0 mm 4 mps 761 mmHg 63%
    19:00 +20°C° 0 mm 4 mps 762 mmHg 68%
    20:00 +20°C° 0 mm 4 mps 762 mmHg 68%
    21:00 +20°C° 0 mm 3 mps 763 mmHg 69%
    22:00 +20°C° 0 mm 3 mps 764 mmHg 69%
    23:00 +20°C° 0 mm 3 mps 763 mmHg 69%

    17 December, Tuesday

    Time Temperature Precipitation Wind Pressure Humidity
    00:00 +20°C° 0 mm 2 mps 763 mmHg 69%
    01:00 +20°C° 0 mm 2 mps 763 mmHg 68%
    02:00 +19°C° 0 mm 2 mps 763 mmHg 70%
    03:00 +19°C° 0 mm 2 mps 763 mmHg 72%
    04:00 +18°C° 0 mm 2 mps 763 mmHg 74%
    05:00 +19°C° 0 mm 2 mps 763 mmHg 67%
    06:00 +20°C° 0 mm 2 mps 764 mmHg 61%
    07:00 +23°C° 0 mm 2 mps 764 mmHg 55%
    08:00 +24°C° 0 mm 2 mps 764 mmHg 50%
    09:00 +25°C° 0 mm 3 mps 764 mmHg 46%
    10:00 +27°C° 0 mm 3 mps 764 mmHg 41%
    11:00 +27°C° 0 mm 4 mps 764 mmHg 41%
    12:00 +27°C° 0 mm 4 mps 764 mmHg 40%
    13:00 +27°C° 0 mm 4 mps 763 mmHg 39%
    14:00 +27°C° 0 mm 4 mps 763 mmHg 41%
    15:00 +26°C° 0 mm 5 mps 763 mmHg 43%
    16:00 +26°C° 0 mm 5 mps 763 mmHg 45%
    17:00 +23°C° 0 mm 4 mps 764 mmHg 50%
    18:00 +22°C° 0 mm 4 mps 764 mmHg 54%
    19:00 +20°C° 0 mm 3 mps 764 mmHg 58%
    20:00 +20°C° 0 mm 3 mps 765 mmHg 62%
    21:00 +19°C° 0 mm 3 mps 765 mmHg 66%
    22:00 +18°C° 0 mm 3 mps 765 mmHg 70%
    23:00 +18°C° 0 mm 3 mps 765 mmHg 72%

    18 December, Wednesday

    Time Temperature Precipitation Wind Pressure Humidity
    00:00 +17°C° 0 mm 3 mps 765 mmHg 74%
    01:00 +17°C° 0 mm 2 mps 764 mmHg 76%
    02:00 +16°C° 0 mm 2 mps 764 mmHg 79%
    03:00 +16°C° 0 mm 2 mps 764 mmHg 81%
    04:00 +15°C° 0 mm 2 mps 764 mmHg 83%
    05:00 +17°C° 0 mm 3 mps 764 mmHg 76%
    06:00 +18°C° 0 mm 3 mps 764 mmHg 68%
    07:00 +20°C° 0 mm 3 mps 764 mmHg 61%
    08:00 +23°C° 0 mm 4 mps 763 mmHg 50%
    09:00 +27°C° 0 mm 4 mps 763 mmHg 39%
    10:00 +30°C° 0 mm 5 mps 762 mmHg 28%
    11:00 +33°C° 0 mm 6 mps 762 mmHg 26%
    12:00 +34°C° 0 mm 7 mps 761 mmHg 24%
    13:00 +37°C° 0 mm 8 mps 760 mmHg 23%
    14:00 +35°C° 0 mm 8 mps 759 mmHg 27%
    15:00 +34°C° 0 mm 8 mps 759 mmHg 31%
    16:00 +33°C° 0 mm 9 mps 758 mmHg 35%
    17:00 +31°C° 0 mm 8 mps 758 mmHg 41%
    18:00 +28°C° 0 mm 8 mps 758 mmHg 47%
    19:00 +27°C° 0 mm 8 mps 759 mmHg 53%
    20:00 +24°C° 0 mm 7 mps 759 mmHg 57%
    21:00 +23°C° 0 mm 6 mps 759 mmHg 61%
    22:00 +22°C° 0 mm 5 mps 759 mmHg 66%
    23:00 +22°C° 0 mm 4 mps 758 mmHg 65%

    19 December, Thursday

    Time Temperature Precipitation Wind Pressure Humidity
    00:00 +22°C° 0 mm 4 mps 758 mmHg 64%
    01:00 +22°C° 0 mm 3 mps 757 mmHg 62%
    02:00 +22°C° 0 mm 3 mps 757 mmHg 57%
    03:00 +22°C° 0 mm 3 mps 757 mmHg 52%
    04:00 +22°C° 0 mm 3 mps 756 mmHg 46%
    05:00 +25°C° 0 mm 3 mps 757 mmHg 40%
    06:00 +28°C° 0 mm 3 mps 757 mmHg 33%
    07:00 +31°C° 0 mm 3 mps 757 mmHg 26%
    08:00 +36°C° 0 mm 3 mps 757 mmHg 21%
    09:00 +41°C° 0 mm 4 mps 757 mmHg 16%
    10:00 +47°C° 0 mm 5 mps 757 mmHg 12%
    11:00 +41°C° 0 mm 7 mps 757 mmHg 21%
    12:00 +37°C° 0 mm 10 mps 757 mmHg 30%
    13:00 +31°C° 0 mm 12 mps 757 mmHg 39%
    14:00 +31°C° 0 mm 11 mps 758 mmHg 39%
    15:00 +29°C° 0 mm 10 mps 758 mmHg 38%
    16:00 +28°C° 0 mm 9 mps 759 mmHg 38%
    17:00 +26°C° 0 mm 8 mps 760 mmHg 47%
    18:00 +24°C° 0 mm 8 mps 762 mmHg 56%
    19:00 +22°C° 0 mm 7 mps 763 mmHg 65%
    20:00 +22°C° 0 mm 6 mps 764 mmHg 67%
    21:00 +22°C° 0 mm 6 mps 764 mmHg 69%
    22:00 +21°C° 0 mm 6 mps 765 mmHg 70%
    23:00 +21°C° 0 mm 5 mps 765 mmHg 70%
    Show more